KJ4AJP Weather Reports


time (UTC)temp
F
wind
direction
speed
knots
gust
knots
rain 1hr
in
rain 24hr
in
rain mn
in
humidity
%
barometer
mb
20260503013430 52 51 0.0 0.0 0.00 0.00 0.00 65 1019.4
20260503012927 53 51 0.0 0.0 0.00 0.00 0.00 63 1019.4
20260503012425 53 52 0.0 0.0 0.00 0.00 0.00 63 1019.2
20260503011921 53 52 0.0 0.0 0.00 0.00 0.00 62 1019.0
20260503011418 54 50 0.0 0.0 0.00 0.00 0.00 61 1019.1
20260503010915 54 54 0.0 0.0 0.00 0.00 0.00 60 1019.0
20260503010412 54 56 0.0 0.0 0.00 0.00 0.00 57 1018.8
20260503005909 55 56 0.0 0.0 0.00 0.00 0.00 56 1018.9
20260503005406 55 50 0.0 0.0 0.00 0.00 0.00 54 1018.8
20260503004902 56 59 0.0 0.9 0.00 0.00 0.00 54 1018.8
20260503004400 56 60 0.0 0.0 0.00 0.00 0.00 54 1018.8
20260503003857 56 41 0.0 0.9 0.00 0.00 0.00 53 1018.7
20260503003353 57 54 0.0 0.9 0.00 0.00 0.00 52 1018.6
20260503002851 57 51 0.0 0.0 0.00 0.00 0.00 54 1018.8
20260503002348 57 58 0.0 0.0 0.00 0.00 0.00 53 1018.7
20260503001844 57 79 0.9 0.9 0.00 0.00 0.00 55 1018.6
20260503001341 58 51 0.0 0.0 0.00 0.00 0.00 56 1018.3
20260503000838 58 57 0.9 1.7 0.00 0.00 0.00 56 1018.1
20260503000336 58 48 0.9 0.9 0.00 0.00 0.00 54 1018.0
20260502235832 58 45 0.9 0.9 0.00 0.00 0.00 53 1018.0
20260502235330 58 65 0.9 0.9 0.00 0.00 0.00 53 1018.0
20260502234826 59 53 0.0 0.0 0.00 0.00 0.00 53 1018.1
20260502234323 59 55 0.0 0.9 0.00 0.00 0.00 53 1017.9
20260502233820 59 49 1.7 2.6 0.00 0.00 0.00 54 1017.9
20260502233316 59 45 0.9 0.9 0.00 0.00 0.00 54 1018.0
20260502232813 60 53 0.9 0.9 0.00 0.00 0.00 53 1017.7
20260502232309 60 66 0.9 0.9 0.00 0.00 0.00 52 1017.9
20260502231806 60 64 0.9 1.7 0.00 0.00 0.00 52 1017.9
20260502231304 60 60 0.9 0.9 0.00 0.00 0.00 52 1017.9
20260502230802 60 59 0.9 0.9 0.00 0.00 0.00 51 1017.8
20260502230300 61 52 0.9 1.7 0.00 0.00 0.00 50 1017.7
20260502225756 61 7 1.7 2.6 0.00 0.00 0.00 50 1017.9
20260502225253 61 94 0.9 1.7 0.00 0.00 0.00 49 1017.8
20260502224749 61 39 0.9 1.7 0.00 0.00 0.00 48 1017.7
20260502224246 61 63 0.0 0.9 0.00 0.00 0.00 49 1017.9
20260502223744 62 49 0.0 0.0 0.00 0.00 0.00 49 1017.6
20260502223242 62 59 0.9 0.9 0.00 0.00 0.00 51 1017.8
20260502222739 62 54 0.9 1.7 0.00 0.00 0.00 51 1017.7
20260502222236 62 43 0.9 0.9 0.00 0.00 0.00 50 1017.5
20260502221731 62 50 0.9 1.7 0.00 0.00 0.00 52 1017.6
20260502221228 62 40 1.7 2.6 0.00 0.00 0.00 50 1017.4
20260502220725 62 51 1.7 3.5 0.00 0.00 0.00 50 1017.6
20260502220221 63 187 1.7 1.7 0.00 0.00 0.00 51 1017.4
20260502215718 63 54 0.9 1.7 0.00 0.00 0.00 49 1017.3
20260502215215 63 52 0.9 0.9 0.00 0.00 0.00 48 1017.2
20260502214712 64 54 1.7 1.7 0.00 0.00 0.00 48 1017.0
20260502214209 65 46 0.9 0.9 0.00 0.00 0.00 47 1016.9
20260502213707 65 20 0.9 0.9 0.00 0.00 0.00 46 1016.8
20260502213204 66 40 0.9 1.7 0.00 0.00 0.00 43 1016.8
20260502212702 67 17 2.6 3.5 0.00 0.00 0.00 38 1016.7
20260502212200 68 68 0.9 0.9 0.00 0.00 0.00 33 1016.6
20260502211656 67 65 0.0 0.9 0.00 0.00 0.00 34 1016.5
20260502211153 67 47 0.9 0.9 0.00 0.00 0.00 37 1016.5
20260502210650 68 348 1.7 2.6 0.00 0.00 0.00 33 1016.5
20260502210147 68 35 1.7 1.7 0.00 0.00 0.00 36 1016.4
20260502205644 68 68 0.0 0.9 0.00 0.00 0.00 35 1016.4
20260502205140 67 92 2.6 3.5 0.00 0.00 0.00 35 1016.6
20260502204637 69 35 1.7 1.7 0.00 0.00 0.00 33 1016.5
20260502204135 69 46 0.9 1.7 0.00 0.00 0.00 33 1016.6
20260502203632 68 45 0.0 0.0 0.00 0.00 0.00 36 1016.5
20260502203130 69 42 0.0 0.0 0.00 0.00 0.00 34 1016.7
20260502202625 70 41 0.9 0.9 0.00 0.00 0.00 34 1016.4
20260502202123 70 77 1.7 3.5 0.00 0.00 0.00 38 1016.7
20260502201619 70 118 1.7 1.7 0.00 0.00 0.00 33 1016.8
20260502201116 71 64 2.6 3.5 0.00 0.00 0.00 31 1016.5
20260502200612 71 26 3.5 3.5 0.00 0.00 0.00 33 1016.7
20260502200110 70 26 0.9 1.7 0.00 0.00 0.00 35 1016.5
20260502195608 69 62 0.0 0.9 0.00 0.00 0.00 33 1016.6
20260502195103 70 50 0.9 1.7 0.00 0.00 0.00 34 1016.6
20260502194600 70 130 0.9 0.9 0.00 0.00 0.00 33 1016.5
20260502194056 71 44 1.7 1.7 0.00 0.00 0.00 33 1016.4
20260502193553 70 68 0.9 0.9 0.00 0.00 0.00 34 1016.5
20260502193050 68 10 0.9 1.7 0.00 0.00 0.00 39 1016.6
20260502192545 69 44 0.9 0.9 0.00 0.00 0.00 35 1016.4
20260502192043 70 107 3.5 6.1 0.00 0.00 0.00 32 1016.7
20260502191540 69 52 1.7 1.7 0.00 0.00 0.00 34 1016.5
20260502191038 70 8 3.5 3.5 0.00 0.00 0.00 33 1016.4
20260502190536 71 40 0.0 0.0 0.00 0.00 0.00 36 1016.5
20260502190033 69 76 2.6 3.5 0.00 0.00 0.00 34 1016.5
20260502185533 68 39 1.7 2.6 0.00 0.00 0.00 33 1016.5
20260502185030 69 63 0.9 0.9 0.00 0.00 0.00 34 1016.6
20260502184526 68 49 0.0 0.9 0.00 0.00 0.00 35 1016.6
20260502184022 68 288 3.5 5.2 0.00 0.00 0.00 39 1016.6
20260502183518 68 46 1.7 2.6 0.00 0.00 0.00 35 1016.8
20260502183015 67 288 5.2 9.6 0.00 0.00 0.00 38 1016.7
20260502182509 65 50 0.0 0.0 0.00 0.00 0.00 44 1016.9
20260502182006 66 74 1.7 1.7 0.00 0.00 0.00 41 1016.9
20260502181504 67 42 0.0 0.0 0.00 0.00 0.00 38 1016.6
20260502181003 68 240 2.6 2.6 0.00 0.00 0.00 41 1016.8
20260502180459 66 34 0.0 0.9 0.00 0.00 0.00 41 1016.7
20260502170418 66 324 2.6 2.6 0.00 0.00 0.00 43 1017.4
20260502163901 66 320 1.7 2.6 0.00 0.00 0.00 41 1017.8
20260502163357 64 4 1.7 1.7 0.00 0.00 0.00 46 1017.9
20260502162855 63 22 0.9 1.7 0.00 0.00 0.00 45 1018.0
20260502162351 64 271 3.5 3.5 0.00 0.00 0.00 40 1018.0
20260502161849 65 305 4.3 6.1 0.00 0.00 0.00 39 1018.0
20260502161345 66 330 1.7 2.6 0.00 0.00 0.00 41 1018.0
20260502160843 64 33 1.7 1.7 0.00 0.00 0.00 43 1018.0
20260502160341 63 24 1.7 1.7 0.00 0.00 0.00 43 1017.9
20260502152316 65 56 0.9 0.9 0.00 0.00 0.00 46 1018.2
20260502151814 65 168 0.9 0.9 0.00 0.00 0.00 45 1018.1
20260502151310 64 31 0.9 1.7 0.00 0.00 0.00 41 1018.1
20260502150808 64 235 0.9 1.7 0.00 0.00 0.00 46 1018.1
20260502150304 63 300 3.5 3.5 0.00 0.00 0.00 46 1018.2
20260502130653 54 62 0.0 0.0 0.00 0.00 0.00 73 1017.9
20260502130150 53 53 0.0 0.0 0.00 0.00 0.00 74 1017.9
20260502123636 46 54 0.0 0.0 0.00 0.00 0.00 97 1017.9
20260502123133 46 54 0.0 0.0 0.00 0.00 0.00 98 1017.7
20260502122629 45 54 0.0 0.0 0.00 0.00 0.00 99 1017.7
20260502122126 44 54 0.0 0.0 0.00 0.00 0.00 98 1017.6
20260502121624 43 54 0.0 0.0 0.00 0.00 0.00 98 1017.6
20260502121121 42 54 0.0 0.0 0.00 0.00 0.00 98 1017.6
20260502120617 42 54 0.0 0.0 0.00 0.00 0.00 98 1017.6
20260502120114 41 54 0.0 0.0 0.00 0.00 0.00 98 1017.5
20260502115613 41 54 0.0 0.0 0.00 0.00 0.00 98 1017.4
20260502115108 41 54 0.0 0.0 0.00 0.00 0.00 98 1017.5
20260502114604 40 54 0.0 0.0 0.00 0.00 0.00 98 1017.4
20260502114102 40 54 0.0 0.0 0.00 0.00 0.00 97 1017.4
20260502113559 39 54 0.0 0.0 0.00 0.00 0.00 97 1017.1
20260502113057 39 54 0.0 0.0 0.00 0.00 0.00 97 1017.3
20260502112555 39 54 0.0 0.0 0.00 0.00 0.00 97 1017.1
20260502112052 39 54 0.0 0.0 0.00 0.00 0.00 97 1017.1
20260502111549 40 54 0.0 0.0 0.00 0.00 0.00 97 1017.0
20260502111047 40 54 0.0 0.0 0.00 0.00 0.00 97 1017.1
20260502110544 40 54 0.0 0.0 0.00 0.00 0.00 97 1016.9
20260502110042 40 54 0.0 0.0 0.00 0.00 0.00 96 1017.1
20260502105539 40 54 0.0 0.0 0.00 0.00 0.00 96 1016.9
20260502105037 40 54 0.0 0.0 0.00 0.00 0.00 96 1017.1
20260502104533 41 54 0.0 0.0 0.00 0.00 0.00 96 1017.0
20260502104031 41 54 0.0 0.0 0.00 0.00 0.00 96 1017.0
20260502103529 41 54 0.0 0.0 0.00 0.00 0.00 96 1017.0
20260502103027 40 54 0.0 0.0 0.00 0.00 0.00 96 1016.9
20260502102522 40 54 0.0 0.0 0.00 0.00 0.00 96 1016.8
20260502102020 40 54 0.0 0.0 0.00 0.00 0.00 95 1016.9
20260502101518 40 54 0.0 0.0 0.00 0.00 0.00 95 1016.9
20260502101016 40 54 0.0 0.0 0.00 0.00 0.00 95 1016.8
20260502100514 41 54 0.0 0.0 0.00 0.00 0.00 94 1016.8
20260502091448 41 54 0.0 0.0 0.00 0.00 0.00 91 1016.5
20260502090946 41 54 0.0 0.0 0.00 0.00 0.00 90 1016.6
20260502090442 41 54 0.0 0.0 0.00 0.00 0.00 89 1016.5
20260502071337 44 54 0.0 0.0 0.00 0.00 0.00 83 1017.1
20260502070835 44 54 0.0 0.0 0.00 0.00 0.00 82 1017.3
20260502070332 44 54 0.0 0.0 0.00 0.00 0.00 80 1017.1
20260502065831 44 54 0.0 0.0 0.00 0.00 0.00 80 1017.2
20260502065329 44 54 0.0 0.0 0.00 0.00 0.00 79 1017.3
20260502064827 44 54 0.0 0.0 0.00 0.00 0.00 78 1017.2
20260502064324 44 54 0.0 0.0 0.00 0.00 0.00 78 1017.1
20260502063822 44 54 0.0 0.0 0.00 0.00 0.00 79 1017.2
20260502063319 44 54 0.0 0.0 0.00 0.00 0.00 79 1017.4
20260502062816 45 54 0.0 0.0 0.00 0.00 0.00 78 1017.4
20260502062314 45 54 0.0 0.0 0.00 0.00 0.00 78 1017.5
20260502061812 45 54 0.0 0.0 0.00 0.00 0.00 77 1017.4
20260502061310 45 54 0.0 0.0 0.00 0.00 0.00 77 1017.7
20260502060805 45 54 0.0 0.0 0.00 0.00 0.00 77 1017.7
20260502060300 44 54 0.0 0.0 0.00 0.00 0.00 77 1017.6
20260502055759 44 54 0.0 0.0 0.00 0.00 0.00 79 1017.7
20260502055256 44 54 0.0 0.0 0.00 0.00 0.00 78 1017.6
20260502054755 44 54 0.0 0.0 0.00 0.00 0.00 76 1017.8
20260502054253 45 54 0.0 0.0 0.00 0.00 0.00 75 1017.6
20260502053750 45 54 0.0 0.0 0.00 0.00 0.00 75 1017.5
20260502053247 45 54 0.0 0.0 0.00 0.00 0.00 75 1017.5
20260502052745 45 54 0.0 0.0 0.00 0.00 0.00 75 1017.4
20260502052243 45 54 0.0 0.0 0.00 0.00 0.00 75 1017.3
20260502051740 45 54 0.0 0.0 0.00 0.00 0.00 75 1017.0
20260502051239 45 54 0.0 0.0 0.00 0.00 0.00 73 1017.0
20260502050734 46 54 0.0 0.0 0.00 0.00 0.00 72 1017.0
20260502050231 46 54 0.0 0.0 0.00 0.00 0.00 72 1017.1
20260502045728 46 54 0.0 0.0 0.00 0.00 0.00 72 1017.3
20260502045225 46 54 0.0 0.0 0.00 0.00 0.00 72 1017.1
20260502044722 46 54 0.0 0.0 0.00 0.00 0.00 71 1017.0
20260502044218 47 54 0.0 0.0 0.00 0.00 0.00 71 1016.9
20260502043715 47 54 0.0 0.0 0.00 0.00 0.00 69 1016.9
20260502043213 47 54 0.0 0.0 0.00 0.00 0.00 69 1017.0
20260502042712 48 54 0.0 0.0 0.00 0.00 0.00 67 1017.1
20260502042210 48 54 0.0 0.0 0.00 0.00 0.00 66 1016.9
20260502041708 49 54 0.0 0.0 0.00 0.00 0.00 64 1017.0
20260502041204 49 54 0.0 0.0 0.00 0.00 0.00 63 1017.0
20260502040701 50 54 0.0 0.0 0.00 0.00 0.00 62 1017.0
20260502040158 50 54 0.0 0.0 0.00 0.00 0.00 63 1017.3
20260502035654 50 54 0.0 0.0 0.00 0.00 0.00 62 1017.3
20260502035151 51 54 0.0 0.0 0.00 0.00 0.00 61 1017.4
20260502034649 51 54 0.0 0.0 0.00 0.00 0.00 59 1017.5
20260502034147 50 54 0.0 0.0 0.00 0.00 0.00 59 1017.4
20260502033645 50 54 0.0 0.0 0.00 0.00 0.00 59 1017.8
20260502033142 51 54 0.0 0.0 0.00 0.00 0.00 59 1017.8
20260502032638 51 54 0.0 0.0 0.00 0.00 0.00 58 1017.9
20260502032135 51 54 0.0 0.0 0.00 0.00 0.00 58 1017.9
20260502031633 51 54 0.0 0.0 0.00 0.00 0.00 57 1017.9
20260502031130 52 54 0.0 0.0 0.00 0.00 0.00 58 1018.0
20260502030629 52 54 0.0 0.0 0.00 0.00 0.00 56 1018.0
20260502030127 53 54 0.0 0.0 0.00 0.00 0.00 55 1018.0
20260502025623 53 54 0.0 0.0 0.00 0.00 0.00 54 1018.1
20260502025122 53 54 0.0 0.0 0.00 0.00 0.00 53 1018.1
20260502024619 53 54 0.0 0.0 0.00 0.00 0.00 53 1018.2
20260502024117 54 54 0.0 0.0 0.00 0.00 0.00 53 1018.1
20260502023615 54 54 0.0 0.0 0.00 0.00 0.00 51 1018.2
20260502023112 54 54 0.0 0.0 0.00 0.00 0.00 52 1018.1
20260502022608 54 54 0.0 0.0 0.00 0.00 0.00 51 1018.2
20260502022106 55 54 0.0 0.0 0.00 0.00 0.00 52 1018.0
20260502021603 54 54 0.0 0.0 0.00 0.00 0.00 51 1017.9
20260502021100 54 54 0.0 0.0 0.00 0.00 0.00 50 1017.9
20260502020557 54 54 0.0 0.0 0.00 0.00 0.00 50 1018.0
20260502020054 54 53 0.0 0.0 0.00 0.00 0.00 53 1018.1
20260502015552 54 53 0.0 0.0 0.00 0.00 0.00 52 1017.8
20260502015048 55 53 0.0 0.0 0.00 0.00 0.00 52 1017.8
20260502014545 55 54 0.0 0.0 0.00 0.00 0.00 51 1017.4
20260502014042 55 52 0.0 0.0 0.00 0.00 0.00 51 1017.5